Location: B�hl
(48.6968°N, 8.1352°E)
Time: 22:26:14
(UTC+00:00)

Cosmos 1763 Rocket - Pass Details

Date: 08 March 2021
Orbit: 733 x 779 km, 74.0° (Epoch: 14 April)

Event Time Altitude Azimuth Distance (km) Brightness Sun altitude
Rises 18:55:09 0° 171° (S) 3,247 6.5 -16.1°
Reaches altitude 10° 18:57:45 10° 161° (SSE) 2,326 5.7 -16.5°
Maximum altitude 19:02:20 31° 101° (E) 1,349 4.2 -17.2°
Drops below altitude 10° 19:06:57 10° 41° (NE) 2,338 5.7 -18.0°
Sets 19:09:33 0° 31° (NNE) 3,267 6.6 -18.4°
